DELTA 1 DEB, 29189

Orbit data source: Space-Track

DELTA 1 DEB, 29189 is space debris in LEO originally from a launch on Thu, 11 Jan 1968 UTC launched from the Air Force Western Test Range (AFWTR). Debris objects in space refer to the collection of defunct objects orbiting the Earth. Examples of debris include non-operational satellites, rocket bodies, and fragments generated from explosions, collisions, or faulty payload assembly.

Loading next visibility...
Identifier
29189, 1968-002N
Orbit
LEO
Last TLE update
4 days ago
Origin
Manufacturer
Unknown
Mission
Spacecraft
Bus & Motor
Unknown
Mass
Unknown
Launch date (UTC)
1968-01-11 (57 years ago)
Launch vehicle
Unknown
Launch site
Air Force Western Test Range (AFWTR)
Object type
Payload
Rocket body
Debris
Shape & HBR
Unknown
Radar Cross Section
Small (<0.1 m²)

Expand to show TLE details & history

TLE from 4 days ago
0 DELTA 1 DEB
1 29189U 68002N   25124.74630300  .00001830  00000-0  44384-2 0  9999
2 29189 105.8370 307.5370 0243856 211.0654 170.6382 13.14406608475856
Epoch: 2025-05-04T17:54Z
Definitive object data (Epoch: 2025-05-04T17:54:40.579Z)
Latitude
21.27663°
Longitude
169.68739°
Altitude
1,390.974 km
Speed
7.079 km/s
True Right ascension
20h 04m 54s
True Declination
21° 10' 12"
Sunlit
Object was in daylight at TLE epoch
Visualization TLE readout
Latitude
28.51762°
Longitude
173.83813°
Altitude
1,392.975 km
Speed
7.078 km/s
Apparent Right ascension
22h 33m 46s
Apparent Declination
-2° 26' 09"
Sunlit
Object is in daylight
Visualization observer readout
Local Sidereal Time
13:51:58
Azimuth
63.243° ENE
Elevation
-31.63°
Doppler factor
1
Orbital elements
Apogee altitude
1,388.801 km
Perigee altitude
1,019.016 km
Semi-major axis
7,582.046 km
Eccentricity
0.0243856
Inclination
105.837°
RAAN
307.537°
Arg. of periapsis
211.0654°
True anomaly
171.07947°
Mean anomaly
170.6382°
Eccentric anomaly
170.86014°
Mean motion
3.28748 °/min
BSTAR
0.0044384
Orbital period
109.51 mins
Loading maneuver chart data...
Loading SW <> Apogee altitude chart data...
Loading historical data...
Loading historical data...
Loading historical data...
Loading historical data...
Loading historical data...
Loading historical data...
Loading historical data...

DELTA 1 DEB Visibility forecast

Observer location: undefined°, undefined°

Span
Click to sort rows by Start time (UTC) header in descending order
Start Az.
Max El. time (UTC)
Max El. Az.
Max El.
End time (UTC)
End Az.
6 mins2025-05-09 09:28:15.199Z65.847° ENE2025-05-09 09:31:15.199Z42.343° NE13.954°2025-05-09 09:34:15.199Z18.183° NNE
14 mins2025-05-09 11:10:15.199Z133.117° SE2025-05-09 11:17:15.199Z50.835° ENE39.752°2025-05-09 11:24:15.199Z345.791° N
12 mins2025-05-09 12:58:15.199Z199.539° SSW2025-05-09 13:04:15.199Z258.605° W29.327°2025-05-09 13:10:15.199Z315.266° NNW
9 mins2025-05-10 00:30:15.199Z56.324° ENE2025-05-10 00:34:15.199Z104.753° ESE25.54°2025-05-10 00:39:15.199Z158.37° S
11 mins2025-05-10 02:16:15.199Z9.63° NNE2025-05-10 02:21:15.199Z307.486° NW38.128°2025-05-10 02:27:15.199Z227.942° WSW
|